www.pogodaiklimat.ru

Погода и климат >> Архив погоды >> Россия >> Забайкальский край >> Усть-Каренга


ПОГОДА в Усть-Каренге

  • Прогноз погоды в Усть-Каренге
  • Монитор погоды в Усть-Каренге
  • Климат города

АРХИВ ПОГОДЫ в Усть-Каренге

Время (UTC), дата Ветер
(напр.,м/с)
 
Видим.   Явления Облачность Т
(С)
Тd
(С)
f
(%)
Тe
(С)
Тes
(С)
Комфортность P
(гПа)
Po
(гПа)
Тmin
(С)
Tmax
(С)
R
(мм)
R24
(мм)
S
(см)
03 8.08 штиль 0 50 км {туман} 6/4 1000 м
[Cu med, cong Ci fib]
+17.5 +12.8 74 +18 +27 1011.3 933.9
06 8.08 50 км {туман} н/о +22.9 +11.6 49 +25 +26 комфорт 1013.5 932.9
09 8.08 З 1 50 км 8/3 600 м
[Cb cap Ac trans Ci fib]
+22.1 +10.7 48 +24 +26 комфорт 1007.4 931.3
12 8.08 штиль 0 50 км 5 баллов +15.7 +12.6 82 +16 +16 1011.4 933.3 +23.9
15 8.08 Ю 1 н/о 8/3 600 м
[Cb cap Ac lent]
+13.2 +12.2 94 +13 +13 1011.0 932.6
18 8.08 В 1 н/о слабый ливневой дождь {гроза} 10/10 600 м
[Cb cap]
+13.5 +12.8 96 +14 +14 1010.6 932.1
21 8.08 штиль 0 20 км {ливн. осадки} 10/10 600 м
[Cb cap]
+12.7 +12.0 96 +12 +12 1011.0 932.2
00 9.08 СЗ 1 10 км {ливн. осадки, туман} 8/5 300 м
[St Ac trans]
+14.6 +12.9 90 +15 +17 1011.4 933.3 +12.4 5
03 9.08 СЗ 2 50 км 8/8 600 м
[Cu med, cong]
+19.9 +12.2 61 +22 +25 комфорт 1009.8 933.1
06 9.08 С 2 50 км 8/8 600 м
[Cb cap]
+21.7 +8.2 42 +23 +25 комфорт 1008.8 932.4
09 9.08 С 2 50 км 4/4 1000 м
[Cu med, cong]
+21.6 +8.8 44 +23 +25 комфорт 1008.7 932.3
12 9.08 штиль 0 50 км 2 балла +15.9 +12.1 78 +16 +16 1012.8 934.7 +22.5
15 9.08 штиль 0 н/о 3/3 600 м
[Sc]
+8.9 +8.2 95 +8 +8 1014.5 934.5
18 9.08 штиль 0 н/о туман ?/? +7.4 +7.4 100 +6 +6 1015.2 934.5
21 9.08 штиль 0 200 м туман ?/? +4.5 +4.5 100 +3 +3 1016.3 934.6
00 10.08 Ю 1 400 м туман ?/? +7.3 +6.9 97 +6 +6 1015.3 934.8 +4.2
03 10.08 СВ 1 50 км {ливн. осадки, туман} 8/5 600 м
[Sc diur, vesp]
+14.9 +9.8 72 +15 +20 1012.4 934.2
06 10.08 СВ 3 50 км {ливн. осадки, туман} 8/4 600 м
[Cb cap Ci sp]
+20.5 +11.9 58 +23 +28 комфорт 1007.5 930.9
09 10.08 СВ 2 50 км 4/3 1000 м
[Cu med, cong Ci fib]
+22.1 +12.0 53 +24 +27 комфорт 1007.0 930.9
12 10.08 СЗ 1 50 км 2 балла +16.0 +12.7 81 +17 +17 1009.9 932.0 +23.1 1
15 10.08 В 1 н/о 3/3 600 м
[Sc]
+10.6 +9.8 95 +10 +10 1011.8 932.5
18 10.08 штиль 0 н/о туман ?/? +7.6 +7.6 100 +6 +6 1012.9 932.5
00 11.08 штиль 0 200 м туман ?/? +8.9 +8.4 97 +8 +8 1013.5 933.6 +5.8
03 11.08 СЗ 1 50 км {туман} 3/3 1000 м
[Cu med, cong]
+19.3 +12.7 66 +22 +32 комфорт 1009.0 932.2
06 11.08 С 1 50 км {туман} 4/3 1000 м
[Cu med, cong Ci fib]
+24.6 +12.7 47 +26 +35 жарко 1005.3 930.0
09 11.08 З 1 50 км 3/3 1000 м
[Cu med, cong Ci fib]
+26.0 +13.9 47 +26 +28 жарко 1004.1 929.0
12 11.08 штиль 0 50 км 4 балла +16.0 +13.7 86 +16 +16 1008.4 930.7 +26.7
15 11.08 ЮВ 1 н/о 3/0
[Ac lent Ci fib]
+10.3 +9.7 96 +10 +10 1009.3 930.1
18 11.08 В 2 н/о 4/1 1000 м
[Sc Ac lent]
+8.1 +7.5 96 +6 +6 1010.0 929.9
21 11.08 штиль 0 200 м туман ?/? +5.4 +5.4 100 +4 +4 1011.2 930.3
00 12.08 штиль 0 200 м туман ясно +9.9 +9.4 97 +9 +15 1010.8 931.4 +5.1
03 12.08 Ю 1 50 км {туман} 3/0
[Ci fib]
+22.5 +11.4 49 +25 +38 комфорт 1006.1 930.3
06 12.08 ЮЗ 1 50 км {туман} 4/3 1000 м
[Cu med, cong Ci fib]
+26.1 +12.7 43 +28 +37 жарко 1003.2 928.4
09 12.08 Ю 1 50 км 4/3 1000 м
[Cu hum Ci fib]
+27.7 +10.1 33 +28 +31 жарко 1002.1 927.6
12 12.08 штиль 0 50 км 5 баллов +17.9 +15.3 85 +18 +18 1006.3 929.3 +29.2
15 12.08 ЮВ 1 н/о 3/0
[Ci fib]
+10.7 +9.8 94 +10 +10 1009.4 930.3
18 12.08 Ю 1 н/о 8/0 1000 м
[Ac und]
+7.9 +7.7 99 +7 +7 1010.7 930.7
21 12.08 Ю 1 200 м туман ?/? +7.0 +7.0 100 +6 +6 1011.4 930.9
00 13.08 штиль 0 200 м туман ?/? +9.3 +8.9 97 +8 +8 1011.5 931.9 +6.2
03 13.08 З 1 50 км {туман} 4/3 1000 м
[Cu hum Ci fib]
+22.5 +11.8 51 +25 +34 комфорт 1007.5 931.6
06 13.08 З 2 50 км {туман} 6/3 1000 м
[Cu med, cong Ci fib]
+27.5 +12.2 39 +29 +36 жарко 1005.0 930.4
09 13.08 З 1 50 км 5/3 1000 м
[Cu hum Ci fib]
+27.8 +10.8 35 +29 +31 жарко 1004.4 929.8
12 13.08 СВ 1 50 км 6 баллов +18.9 +15.8 82 +21 +21 комфорт 1009.0 932.0 +29.2
15 13.08 В 1 н/о 4/0
[Ci fib]
+12.4 +11.9 97 +12 +12 1011.0 932.4
18 13.08 штиль 0 н/о 3/0
[Ac lent]
+9.7 +9.1 96 +9 +9 1012.6 932.8
21 13.08 штиль 0 400 м туман ?/? +8.3 +8.3 100 +7 +7 1013.3 933.6
00 14.08 штиль 0 300 м туман ясно +10.4 +10.0 97 +10 +15 1014.8 935.2 +7.6
03 14.08 В 1 50 км {туман} 3/0
[Ci]
+23.4 +14.1 56 +27 +40 душно 1010.6 934.7
06 14.08 штиль 0 10 км {туман} 8/0
[Ci sp]
+28.0 +13.1 40 +30 +42 жарко 1008.1 933.4
09 14.08 З 2 50 км 8/0
[Ci sp]
+28.7 +13.0 38 +30 +33 жарко 1007.5 933.0
12 14.08 штиль 0 50 км 4 балла +19.6 +16.6 83 +22 +22 комфорт 1013.1 936.0 +29.6
15 14.08 штиль 0 н/о 3/0
[Ci fib]
+12.0 +11.2 95 +11 +11 1015.3 936.1
18 14.08 штиль 0 50 км 3/0
[Ci fib]
+9.7 +9.1 96 +9 +9 1017.1 937.0
21 14.08 ЮВ 1 200 м туман ?/? +8.0 +8.0 100 +7 +7 1018.4 937.7
00 15.08 штиль 0 200 м туман ясно +10.8 +10.4 97 +10 +16 1018.7 939.0 +7.5

 

Местоположение метеостанции Усть-Каренга (Забайкальский край, Россия): широта 54.43 долгота 116.50 высота над уровнем моря 688 м.

В архиве по умолчанию представлена погода в Усть-Каренге за последнюю неделю. Архивные данные за месяц целиком и за предыдущие месяцы, начиная с января 2011 года, Вы можете получить, выбрав интересующий диапазон дат из раскрывающегося списка и нажав кнопку "Ввод!".


*Определитесь, кто Вы:
робот инопланетянин человек

Внимание! Время в таблицах - всемирное. Для получения местного времени необходимо прибавить поправку, которая в Усть-Каренге равна 9 ч.

Смотрите также архив погоды в соседних городах и на ближайших метеорологических станциях:

Погода в Тунгокочене (Забайкальский край, Россия) (116 км)
Погода в Ксеньевской (Забайкальский край, Россия) (174 км)
Погода в Багдарине (Бурятия, Россия) (194 км)
Погода в Чернышевске (Забайкальский край, Россия) (214 км)
Погода в Усугли (Забайкальский край, Россия) (219 км)
Погода в Уаките (Бурятия, Россия) (219 км)
Погода в Тупике (Забайкальский край, Россия) (220 км)
Погода в Троицком Прииске (Бурятия, Россия) (220 км)
Погода в Могоче (Забайкальский край, Россия) (222 км)
Погода в Баунте (Бурятия, Россия) (237 км)

Пояснения к столбцам:

Ветер - указаны скорость ветра в м/с - средняя за 10 мин, порывы в срок и между сроками (в фигурных скобках) и направление, откуда дует ветер: С - северный, СВ - северо-восточный, В - восточный, ЮВ - юго-восточный, Ю - южный, ЮЗ - юго-западный, З - западный, СЗ - северо-западный.
Видимость - горизонтальная дальность видимости в метрах или километрах. При видимости от 1 до 10 км при отсутствии осадков обычно наблюдается дымка, при ухудшении видимости до 1 км и менее - туман. В сухую погоду видимость может ухудшаться дымом, пылью или мглою.
Явления - указаны атмосферные явления, наблюдавшиеся в срок или в последний час перед сроком; фигурными скобками обозначены явления, наблюдавшиеся между сроками (за 1-3 часа до срока); квадратными скобками обозначены град или гололедные отложения с указанием их диаметра в мм.
Облачность - указаны через наклонную черту общая и нижняя облачность в баллах и высота нижней границы облаков в метрах; квадратными скобками обозначены формы облаков: Ci - перистые, Cs - перисто-слоистые, Cc - перисто-кучевые, Ac - высококучевые, As - высокослоистые, Sc - слоисто-кучевые, Ns - слоисто-дождевые, Cu - кучевые, Cb - кучево-дождевые. Подробнее классификацию облаков см. в Атласе облаков (PDF).
T - Температура воздуха - температура, измеренная на высоте 2 м над землей.
Td - Температура точки росы - температура, при понижении до которой содержащийся в воздухе водяной пар достигнет насыщения.
f - Относительная влажность воздуха - влажноcть воздуха, измеренная на высоте 2 м над землей.
Te - Эффективная температура - температура, которую ощущает одетый по сезону человек в тени. Характеристика душности погоды. При расчете учитывается влияние влажности воздуха и скорости ветра на теплоощущения человека.
Tes - Эффективная температура на солнце - температура, которую ощущает человек, с поправкой на солнечный нагрев. Характеристика знойности погоды. Зависит от высоты солнца над горизонтом, облачности и скорости ветра. Ночью, в пасмурную погоду, а также при ветре 12 м/с и более поправка равна нулю.
P - Атмосферное давление - приведенное к уровню моря атмосферное давление.
Po - Атмосферное давление - измеренное на уровне метеостанции атмосферное давление.
Tmin - Минимальная температура - минимум температуры воздуха на высоте 2 м над землей.
Tmax - Максимальная температура - максимум температуры воздуха на высоте 2 м над землей.
R - Количество осадков - Количество выпавших осадков за период времени, мм. При наведении курсора мыши на число - период времени, за который выпало указанное количество осадков.
R24 - Количество осадков - Количество выпавших осадков за 24 часа, мм.
S - Снежный покров - Высота снежного покрова, см. При наведении курсора мыши на число - состояние снежного покрова и степень покрытия местности в баллах.